User: anonymous   Login
Location: Mentone
(34.5413°N, 85.5351°W)
Time: 09:55:42
(UTC-05:00)
Language:

ERBS - Orbit

View from above orbital plane
View from above orbital plane
View from above satellite
View from above satellite

Ground track
Ground track

The orbit data is extracted from the following two-line orbital elements,

1 15354U 84108B   16127.11613322  .00004818  00000-0  12617-3 0  9996
2 15354  57.0089  87.0118 0016959  62.7779 297.5001 15.40490171735407
Epoch (UTC): 06 May 2016 02:47:13
Eccentricity: 0.0016959
inclination: 57.0089°
perigee height: 433 km
apogee height: 456 km
right ascension of ascending node: 87.0118°
argument of perigee: 62.7779°
revolutions per day: 15.40490171
mean anomaly at epoch: 297.5001°
orbit number at epoch: 73540

The dashed part of the orbit path shows where the satellite is in the earth's shadow,  

DLR